Location: Unspecified
(42.9300°N, 71.1866°W)
Time: 14:16:17
(UTC-04:00)

GENESIS II - Visible Passes

Search period start: 02 July 2015 00:00
Search period end: 12 July 2015 00:00
Orbit: 498 x 552 km, 64.5° (Epoch: 01 July)

Date Brightness Start Highest point End Pass type
(mag) Time Alt. Az. Time Alt. Az. Time Alt. Az.
02 Jul 5.3 00:45:56 10° NNW 00:49:51 42° NE 00:50:36 38° ENE visible
02 Jul 6.4 02:24:26 10° WNW 02:25:44 16° W 02:25:44 16° W visible
03 Jul 5.1 00:33:07 10° NNW 00:37:05 45° NE 00:37:34 43° ENE visible
03 Jul 6.6 02:11:47 10° WNW 02:12:42 14° WNW 02:12:42 14° WNW visible
04 Jul 4.9 00:20:18 10° NNW 00:24:18 50° NE 00:24:37 48° ENE visible
04 Jul 6.7 01:59:09 10° WNW 01:59:45 12° WNW 01:59:45 12° WNW visible
05 Jul 4.7 00:07:28 10° NNW 00:11:31 54° NE 00:11:44 53° ENE visible
05 Jul 6.9 01:46:33 10° WNW 01:46:52 11° WNW 01:46:52 11° WNW visible
05 Jul 7.1 22:19:08 10° NNE 22:19:55 11° NNE 22:20:52 10° NE visible
05 Jul 4.6 23:54:39 10° NNW 23:58:44 59° NE 23:58:55 59° ENE visible
06 Jul 6.9 01:33:58 10° WNW 01:34:03 10° W 01:34:03 10° W visible
06 Jul 7.0 22:05:58 10° NNE 22:07:12 11° NNE 22:08:33 10° NE visible
06 Jul 4.4 23:41:50 10° NNW 23:45:57 65° NE 23:46:09 64° ENE visible
07 Jul 6.9 21:52:55 10° NNE 21:54:27 12° NE 21:56:06 10° ENE visible
07 Jul 4.3 23:29:01 10° NNW 23:33:09 71° NE 23:33:26 68° E visible
08 Jul 6.8 21:39:54 10° N 21:41:42 13° NE 21:43:36 10° ENE visible
08 Jul 4.2 23:16:12 10° NNW 23:20:20 78° NE 23:20:45 69° ESE visible
09 Jul 6.8 21:26:56 10° N 21:28:57 13° NE 21:31:05 10° ENE visible
09 Jul 4.2 23:03:23 10° NNW 23:07:32 85° NE 23:08:07 64° SE visible
10 Jul 6.7 21:13:59 10° N 21:16:11 14° NE 21:18:31 10° ENE visible
10 Jul 4.2 22:50:35 10° NW 22:54:43 87° WSW 22:55:32 56° SSE visible
11 Jul 6.6 21:01:02 10° N 21:03:26 15° NE 21:05:56 10° ENE visible
11 Jul 4.3 22:37:46 10° NW 22:41:54 80° WSW 22:43:00 47° SSE visible
